Aviation WX

[Source: ADDS]
METAR
KFKL 120556Z AUTO 25004KT 3SM BR OVC010 M02/M03 A3004 RMK AO2 SNB0457E50 CIG 007V015 SLP190 P0000 60000 T10221033 11011 21022 51006 FZRANO =
KFKL 120520Z 1206/1306 VRB04KT 5SM BR OVC010 FM121400 15007KT P6SM BKN250 FM130300 16009KT P6SM OVC015
TAF
KFKL 120520Z 1206/1306 VRB04KT 5SM BR OVC010 FM121400 15007KT P6SM BKN250 FM130300 16009KT P6SM OVC015 =

Clarion Airport T-Shirts

small

24-Hour Fuel Instructions

We sell 100LL Avgas and Jet A with pre-mixed anti-icing additive, and both fuels are available 24 hours a day through our automated fueling terminal.  We provide full service fueling during our attended hours.  After hours, you can serve yourself, or you can call us, and we will be happy to come in and fuel your plane.  Jet A is available Single Point, or Over the Wing.  We will do hot fueling of turbine helicopters by prior arrangement.

The instructions for operating the fueling terminal are as follows:

100LL

1.  Locate the fire extinguishers on the pump island and the Emergency Fuel Pump Shutoff Switch on the side of the terminal building to left of the entrance.  Ground the aircraft with the grounding clamp to a metallic surface on the aircraft

2.  Indicate that you have done so by pressing the "OK" key on the unit keyboard.

3.  Swipe your credit card through the card reader.

4.  Follow prompts for type of fuel, quantity or dollar amount desired.

5.  Enter N number, cursor is over the "N" to start with, use arrow keys to select other numbers and letters.

6.  After authorization, turn on black electrical switch near Avgas hose reel. Pump fuel.

7.  When finished, turn off pump switch.  Receipt will print out.





JET A w/additive


1.  Locate the fire extinguishers on the pump island and the Emergency Fuel Pump Shutoff Switch on the side of the terminal building to left of the entrance.  Ground the aircraft with the grounding clamp to a metallic surface on the aircraft

2.  Indicate that you have done so by pressing the "OK" key on the unit keyboard.

3.  Swipe your credit card through the card reader.

4.  Follow prompts for type of fuel, quantity or dollar amount desired.

5.  Enter N number, cursor is over the "N" to start with, use arrow keys to select other numbers and letters.

6.  After authorization, Jet Pump will start, turn on black electrical switch on side toward Jet pump hose reel to open fuel valve. Pump fuel.

7.  When finished, turn off pump switch.  Receipt will print out.